Starlink 32173

operational
NORAD ID: 60586 Int'l Des: 2024-150 Owner: SPXS Country: US Constellation: starlink
LEOCIRCULAR

Über Starlink 32173

Beschreibung wird geladen...

Live-Position

3D-Globus wird geladen...

Nächste Überflüge

Höhenverlauf

Altitude vs Time

uPlot chart will show altitude changes over time

Zweizeiliger Elementsatz

1 60586U 24150D 25305.67335115 .00001979 00000-0 78949-4 0 9990
2 60586 53.1589 181.4946 0001269 84.1422 275.9724 15.30189779 68448
Epoch: 1. Nov. 2025 • Age: 43 hours

Aktueller Status

Höhe 479.6 km
Geschwindigkeit 7.63 km/s
Subsatellitenpunkt 47.01°N, 21.8°E
Startdatum 20. Aug. 2024
Alter 1.2 years
Typ internet

Technische Details

Klassifizierung Payload
Masse 730.00 kg
Trockenmasse 700.00 kg
Gesamtmasse 730.00 kg
Länge 0.30 m
Durchmesser 4.10 m
Spannweite 29.00 m
Form Box + pan
Hersteller SPXS
Bus-Typ Starlink V2M
Phasenstatus In Orbit
Besitzer/Staat SPXS/US

Große Konstellationen

Loading constellations...